DIWATA-2B

Last updated on Fri Feb 06 2026 00:03:13 GMT+0000 (Coordinated Universal Time)

1 43678U 18084H 26036.69981383 .00002790 00000+0 23061-3 0 9995 2 43678 98.1066 227.4217 0008385 226.6325 133.4199 14.99803135396501
UTC large
Height (km)
Speed (km/s)
/
Latitude / Longitude
Inclination (degrees)
Orbital Period (minutes)
Azimuth
Elevation
Range (km)
Doppler Factor

Next 0 passes for location: London (51.5072 / 0.1276)

Sorry there are no passes over London.